DW0912 Weather Reports


time (UTC)temp
C
wind
direction
speed
KPH
gust
KPH
rain 1hr
cm
rain 24hr
cm
rain mn
cm
humidity
%
barometer
mb
20260505083100 12 0 0.0 0.0 0.00 0.00 0.00 80 1015.0
20260505081600 13 0 0.0 0.0 0.00 0.00 0.00 79 1015.1
20260505080053 13 0 0.0 0.0 0.00 0.00 0.00 79 1015.2
20260505074601 13 0 0.0 0.0 0.00 0.00 0.00 79 1015.3
20260505073058 13 0 0.0 0.0 0.00 0.00 0.00 79 1015.3
20260505071555 12 0 0.0 0.0 0.00 0.00 0.00 79 1015.4
20260505070055 13 0 0.0 0.0 0.00 0.00 0.00 79 1015.5
20260505064554 13 0 0.0 0.0 0.00 0.00 0.00 79 1015.5
20260505063055 13 0 0.0 0.0 0.00 0.00 0.00 79 1015.5
20260505061553 13 0 0.0 0.0 0.00 0.00 0.00 79 1015.4
20260505060059 13 0 0.0 0.0 0.00 0.00 0.00 79 1015.4
20260505054558 13 0 0.0 0.0 0.00 0.00 0.00 79 1015.3
20260505053056 13 0 0.0 0.0 0.00 0.00 0.00 78 1015.4
20260505051555 13 0 0.0 0.0 0.00 0.00 0.00 77 1015.5
20260505041554 13 0 0.0 0.0 0.00 0.00 0.00 76 1015.4
20260505034553 13 0 0.0 0.0 0.00 0.00 0.00 77 1015.3
20260505033057 13 0 0.0 0.0 0.00 0.00 0.00 77 1015.4
20260505031558 13 0 0.0 0.0 0.00 0.00 0.00 78 1015.1
20260505030100 14 0 0.0 0.0 0.00 0.00 0.00 77 1015.0
20260505024556 14 0 0.0 0.0 0.00 0.00 0.00 75 1015.0
20260505023055 14 0 0.0 0.0 0.00 0.00 0.00 74 1014.9
20260505021551 15 0 0.0 0.0 0.00 0.00 0.00 74 1015.0
20260505020052 15 0 0.0 0.0 0.00 0.00 0.00 73 1014.9
20260505014604 16 0 0.0 0.0 0.00 0.00 0.00 73 1015.0
20260505013055 16 0 0.0 0.0 0.00 0.00 0.00 73 1015.1
20260505011555 15 0 0.0 0.0 0.00 0.00 0.00 74 1015.1
20260505010056 15 0 0.0 0.0 0.00 0.00 0.00 74 1015.2
20260505004558 16 0 0.0 0.0 0.00 0.00 0.00 72 1015.2
20260505003054 16 0 0.0 0.0 0.00 0.00 0.00 71 1015.3
20260505001554 16 0 0.0 0.0 0.00 0.00 0.00 68 1015.1
20260505000057 17 0 0.0 0.0 0.00 0.00 0.00 66 1014.9
20260504234553 17 0 0.0 0.0 0.00 0.00 0.00 63 1014.9
20260504233054 18 0 0.0 0.0 0.00 0.00 0.00 63 1014.9
20260504231558 17 0 0.0 0.0 0.00 0.00 0.00 64 1015.0
20260504230057 17 0 0.0 0.0 0.00 0.00 0.00 65 1015.1
20260504224559 17 0 0.0 0.0 0.00 0.00 0.00 63 1015.2
20260504223054 17 0 0.0 0.0 0.00 0.00 0.00 62 1015.3
20260504221557 18 0 0.0 0.0 0.00 0.00 0.00 60 1015.6
20260504220101 18 0 0.0 0.0 0.00 0.00 0.00 62 1015.7
20260504214604 17 0 0.0 0.0 0.00 0.00 0.00 62 1015.8
20260504213057 18 0 0.0 0.0 0.00 0.00 0.00 60 1015.8
20260504211555 18 0 0.0 0.0 0.00 0.00 0.00 57 1015.7
20260504204610 18 0 0.0 0.0 0.00 0.00 0.00 57 1015.6
20260504203122 18 0 0.0 0.0 0.00 0.00 0.00 56 1015.7
20260504201554 18 0 0.0 0.0 0.00 0.00 0.00 55 1015.7
20260504200055 18 0 0.0 0.0 0.00 0.00 0.00 53 1015.6
20260504194553 18 0 0.0 0.0 0.00 0.00 0.00 56 1015.7
20260504193052 18 0 0.0 0.0 0.00 0.00 0.00 55 1015.7
20260504191557 18 0 0.0 0.0 0.00 0.00 0.00 56 1015.7
20260504190055 18 0 0.0 0.0 0.00 0.00 0.00 57 1015.9
20260504184559 17 0 0.0 0.0 0.00 0.00 0.00 57 1015.9
20260504183053 17 0 0.0 0.0 0.00 0.00 0.00 59 1016.0
20260504181554 17 0 0.0 0.0 0.00 0.00 0.00 60 1016.2
20260504180113 17 0 0.0 0.0 0.00 0.00 0.00 61 1016.1
20260504174553 16 0 0.0 0.0 0.00 0.00 0.00 60 1016.1
20260504173106 16 0 0.0 0.0 0.00 0.00 0.00 61 1015.9
20260504171633 16 0 0.0 0.0 0.00 0.00 0.00 63 1016.0